Flag for Norway Weather past 2 weeks in Grimstad, Norway

Now
40 °F

Quite cool.


Feels Like: 36 °F
Forecast: 33 / 44 °F
Wind: 6 mph from Southeast

Location: Torungen Fyr

Current Time: Mar 4, 2015 at 5:12:44 PM

Latest Report: Mar 4, 2015 at 4:00 PM


Visibility: N/A

Pressure: 29.98 "Hg

Humidity: 80%

Dew point: 35 °F

Location of GrimstadLocation

Historic Weather in Grimstad — Graph

°F

Grimstad temperature yesterday

Maximum temperature yesterday: 41 °F (at 2:00 PM)
Minimum temperature yesterday: 33 °F (at 11:00 PM)
Average temperature yesterday: 37 °F

Past Weeks' High & Low Weather Summary

 TemperatureHumidityPressure
High47 °F (Feb 18, 3:00 PM)98% (Feb 19, 8:00 AM)30.25 "Hg (Feb 19, 8:00 AM)
Low29 °F (Mar 4, 7:00 AM)59% (Feb 22, 3:00 PM)28.91 "Hg (Feb 23, 10:00 AM)
Average39 °F89%29.55 "Hg
* Reported Feb 17 3:00 PM — Mar 4 3:00 PM, Grimstad, Weather by CustomWeather, © 2015

Note: Actual official high and low records may vary slightly from our data, if they occured in-between our weather recording intervals... More about our weather records

Advertising

Grimstad weather history for previous 24 hours

 ConditionsComfort  
Time TempWeatherWind HumidityBarometerVisibility
3:00 PM
Wed, Mar 4
41 °FQuite cool.6 mph71%29.94 "HgN/A
2:00 PM41 °FQuite cool.3 mph72%29.92 "HgN/A
1:00 PM40 °FQuite cool.1 mph71%29.90 "HgN/A
12:00 PM39 °FChilly.1 mph70%29.87 "HgN/A
11:00 AM36 °FChilly.2 mph75%29.84 "HgN/A
10:00 AM33 °FChilly.3 mph81%29.81 "HgN/A
9:00 AM31 °FChilly.3 mph87%29.78 "HgN/A
8:00 AM30 °FChilly.5 mph90%29.76 "HgN/A
7:00 AM29 °FChilly.3 mph91%29.75 "HgN/A
6:00 AM30 °FChilly.3 mph92%29.73 "HgN/A
5:00 AM30 °FChilly.2 mph92%29.71 "HgN/A
3:00 AM32 °FChilly.1 mph91%29.70 "HgN/A
2:00 AM32 °FChilly.3 mph92%29.68 "HgN/A
1:00 AM33 °FChilly.3 mph91%29.68 "HgN/A
12:00 AM33 °FChilly.2 mph91%29.67 "HgN/A
11:00 PM
Tue, Mar 3
33 °FChilly.1 mph88%29.67 "HgN/A
10:00 PM34 °FChilly.2 mph87%29.66 "HgN/A
9:00 PM34 °FChilly.2 mph87%29.65 "HgN/A
8:00 PM35 °FChilly.3 mph85%29.65 "HgN/A
7:00 PM37 °FChilly.6 mph83%29.63 "HgN/A
6:00 PM39 °FChilly.6 mph82%29.62 "HgN/A
5:00 PM38 °FChilly.6 mph82%29.61 "HgN/A
Weather by CustomWeather, © 2015

See weather overviewHow to use our weather pages